Terminal Aerodrome Forecast
Issued by NWS

Home | Current Version | Previous Version | Text Only | Print | Product List | Glossary On
Versions: 1 2 3 4 5 6 7 8 9 10 11 12 13 14 15 16 17 18 19 20 21 22 23 24 25 26 27 28 29 30 31 32 33 34 35 36 37 38 39
000
FTPA31 PHFO 232300
TAFLNY
TAF
PHNY 232332Z 2400/2424 05014G24KT P6SM FEW020 SCT035
     FM240600 06008KT P6SM FEW020
     FM241900 05011KT P6SM FEW020 SCT035
     FM242200 04018G28KT P6SM FEW020 SCT035
      AMD NOT SKED=

USA.gov is the U.S. government's official web portal to all federal, state and local government web resources and services.